Showing default

MOMENTUS-X1, 44408

Orbit data source: Space-Track

MOMENTUS-X1, 44408 is a payload satellite owned by Momentus (US) in SSO that was launched on Fri, 05 Jul 2019 UTC via a SOYUZ-2-1B launch vehicle from the Vostochny Cosmodrome (VOSTO). Payload-class satellites include a variety of spacecraft equipped with specific instruments for various scientific and technological missions. These include communications satellites like Starlink; space stations such as the ISS; scientific satellites like the Hubble; Earth observation satellites from companies like Planet Labs, Umbra, and HawkEye 360; GPS; miniature CubeSats for education and research; and military/defense satellites.

Loading next visibility...
Identifier
44408, 2019-038Y
Orbit
SSO
Country
Flag of USUS
Related business
Manufacturer
Astro Digital
Mission
Operational Commercial Technology
Bus & Motor
CUBESAT 16U, Unknown motor
Mass
~20 kg wet, ~20 kg dry
Launch date (UTC)
2019-07-05 (6 years ago)
Launch vehicle
SOYUZ-2-1B
Launch site
Vostochny Cosmodrome (VOSTO)
Object type
Payload
Rocket body
Debris
Shape & HBR
Box, 0.2 m
Radar Cross Section
0.160 m², Medium (>0.1 m² and < 1m²)

Expand to show TLE details & history
Last TLE update: 18 hours ago

TLE from 18 hours ago
0 MOMENTUS-X1
1 44408U 19038Y   25286.89287716  .00027850  00000-0  51542-3 0  9994
2 44408  97.7143 307.8230 0010855 184.6809 175.4341 15.48935647348227
Epoch: 2025-10-13T21:25Z
TLE epoch observation values (Epoch: 2025-10-13T21:25:44.586Z)
Latitude
-0.00005°
Longitude
-36.3019°
Altitude
430.316 km
Speed
7.649 km/s
True Right ascension
20h 31m 17s
True Declination
0° 00' 00"
Sunlit
Object was in daylight at epoch
Visualization orbit readout
Latitude
Unknown
Longitude
Unknown
Altitude
Unknown
Speed
Unknown
Apparent Right ascension
Unknown
Apparent Declination
Unknown
Sunlit
N/A
Visualization observer readout
Local Sidereal Time
09:57:38
Azimuth
Unknown
Elevation
Unknown
Doppler factor
Unknown
Orbital elements
Apogee altitude
424.155 km
Perigee altitude
409.404 km
Semi-major axis
6,794.916 km
Eccentricity
0.00109
Inclination
97.7143°
RAAN
307.823°
Arg. of periapsis
184.6809°
True anomaly
175.44399°
Mean anomaly
175.4341°
Eccentric anomaly
175.43905°
Mean motion
3.87496 °/min
Orbital period
92.9 mins
BSTAR
0.00051542
Loading maneuver chart data...
Computing Atmospheric mass density...

Documentation

Showing up to 5 results
|